GW2951 Weather Reports


Display with metric or nautical units.
time (UTC)temp
F
wind
direction
speed
MPH
gust
MPH
rain 1hr
in
rain 24hr
in
rain mn
in
humidity
%
barometer
mb
20260507141552 84 0 2.0 7.0 0.00 0.00 0.00 75 1016.5
20260507140052 84 220 2.0 8.0 0.00 0.00 0.00 75 1016.4
20260507134557 83 215 4.0 8.0 0.00 0.00 0.00 76 1016.4
20260507133057 83 246 2.0 8.0 0.00 0.00 0.00 76 1016.1
20260507131611 83 210 2.0 8.0 0.00 0.00 0.00 77 1016.3
20260507130057 82 230 2.0 8.0 0.00 0.00 0.00 77 1016.1
20260507124552 82 182 4.0 8.0 0.00 0.00 0.00 78 1015.8
20260507123053 81 244 2.0 5.0 0.00 0.00 0.00 79 1015.9
20260507121554 81 225 3.0 8.0 0.00 0.00 0.00 79 1015.8
20260507120053 81 0 2.0 7.0 0.00 0.00 0.00 79 1015.7
20260507114556 80 246 3.0 7.0 0.00 0.00 0.00 80 1015.7
20260507113059 79 218 3.0 6.0 0.00 0.00 0.00 81 1015.4
20260507111554 79 212 2.0 8.0 0.00 0.00 0.00 82 1015.2
20260507110054 78 233 2.0 6.0 0.00 0.00 0.00 82 1015.0
20260507104553 78 221 3.0 9.0 0.00 0.00 0.00 82 1014.6
20260507103058 78 228 3.0 7.0 0.00 0.00 0.00 82 1014.4
20260507101556 78 238 3.0 6.0 0.00 0.00 0.00 82 1014.3
20260507100056 78 223 2.0 9.0 0.00 0.00 0.00 81 1014.3
20260507094551 78 196 2.0 6.0 0.00 0.00 0.00 81 1014.1
20260507093056 78 225 1.0 5.0 0.00 0.00 0.00 81 1014.2
20260507091555 78 202 2.0 8.0 0.00 0.00 0.00 81 1014.3
20260507090051 78 0 3.0 7.0 0.00 0.00 0.00 81 1014.1
20260507084556 78 223 2.0 8.0 0.00 0.00 0.00 81 1014.0
20260507083053 78 205 3.0 7.0 0.00 0.00 0.00 81 1014.1
20260507081553 78 205 4.0 8.0 0.00 0.00 0.00 81 1014.1
20260507080105 79 227 3.0 7.0 0.00 0.00 0.00 81 1014.1
20260507074552 79 175 4.0 9.0 0.00 0.00 0.00 80 1014.2
20260507073054 78 229 4.0 10.0 0.00 0.00 0.00 80 1014.3
20260507071609 79 216 3.0 8.0 0.00 0.00 0.00 81 1014.5
20260507070056 79 189 3.0 9.0 0.00 0.00 0.00 80 1014.4
20260507064554 79 221 4.0 8.0 0.00 0.00 0.00 80 1014.7
20260507063058 79 227 3.0 8.0 0.00 0.00 0.00 80 1015.1
20260507061600 79 209 4.0 10.0 0.00 0.00 0.00 80 1015.1
20260507060100 79 230 3.0 10.0 0.00 0.00 0.00 80 1015.0
20260507054603 79 190 3.0 10.0 0.00 0.00 0.00 80 1015.1
20260507053121 79 214 3.0 9.0 0.00 0.00 0.00 80 1015.4
20260507051605 79 213 2.0 9.0 0.00 0.00 0.00 80 1015.6
20260507050055 79 186 2.0 6.0 0.00 0.00 0.00 79 1015.7
20260507044559 79 151 2.0 10.0 0.00 0.00 0.00 79 1015.9
20260507043057 79 187 1.0 7.0 0.00 0.00 0.00 79 1015.9
20260507041604 79 192 2.0 5.0 0.00 0.00 0.00 78 1015.8
20260507040054 79 154 2.0 9.0 0.00 0.00 0.00 79 1016.1
20260507034556 79 152 0.0 7.0 0.00 0.00 0.00 79 1015.9
20260507033055 79 0 3.0 7.0 0.00 0.00 0.00 78 1015.9
20260507031600 79 117 1.0 9.0 0.00 0.00 0.00 78 1016.0
20260507030057 79 0 1.0 6.0 0.00 0.00 0.00 77 1015.9
20260507024604 79 0 0.0 4.0 0.00 0.00 0.00 78 1015.8
20260507023052 79 0 1.0 6.0 0.00 0.00 0.00 78 1015.7
20260507021557 79 111 1.0 5.0 0.00 0.00 0.00 78 1015.7
20260507020057 79 171 0.0 3.0 0.00 0.00 0.00 79 1015.7
20260507014603 79 0 0.0 3.0 0.00 0.00 0.00 79 1015.8
20260507013053 79 0 0.0 3.0 0.00 0.00 0.00 79 1015.6
20260507011552 79 174 0.0 3.0 0.00 0.00 0.00 78 1015.7
20260507004606 80 0 0.0 0.0 0.00 0.00 0.00 77 1015.8
20260507003059 80 0 0.0 3.0 0.00 0.00 0.00 76 1015.6
20260507001556 81 0 0.0 3.0 0.00 0.00 0.00 76 1015.6
20260507000054 81 0 1.0 5.0 0.00 0.00 0.00 75 1015.4
20260506234555 82 186 1.0 4.0 0.00 0.00 0.00 74 1015.3
20260506233058 82 234 1.0 6.0 0.00 0.00 0.00 74 1015.1
20260506231553 83 239 1.0 6.0 0.00 0.00 0.00 74 1015.2
20260506230056 83 0 2.0 8.0 0.00 0.00 0.00 73 1015.3
20260506224552 83 158 2.0 8.0 0.00 0.00 0.00 73 1015.1
20260506223053 83 239 3.0 8.0 0.00 0.00 0.00 73 1015.0
20260506221557 83 0 1.0 6.0 0.00 0.00 0.00 73 1014.8
20260506220054 83 236 3.0 8.0 0.00 0.00 0.00 73 1014.9
20260506214603 83 188 2.0 7.0 0.00 0.00 0.00 73 1014.9
20260506213055 83 206 1.0 6.0 0.00 0.00 0.00 73 1014.9
20260506211605 83 237 1.0 8.0 0.00 0.00 0.00 73 1014.7
20260506210056 83 221 1.0 7.0 0.00 0.00 0.00 72 1014.7
20260506204601 83 221 4.0 9.0 0.00 0.00 0.00 72 1014.9
20260506203113 84 190 3.0 8.0 0.00 0.00 0.00 72 1015.1
20260506201609 83 215 4.0 9.0 0.00 0.00 0.00 72 1015.1
20260506200108 84 244 5.0 10.0 0.00 0.00 0.00 71 1015.2
20260506194610 84 201 4.0 9.0 0.00 0.00 0.00 71 1015.4
20260506193109 84 192 3.0 8.0 0.00 0.00 0.00 72 1015.6
20260506191613 84 233 5.0 9.0 0.00 0.00 0.00 70 1015.9
20260506190100 84 185 4.0 9.0 0.00 0.00 0.00 70 1015.9
20260506184608 85 235 4.0 8.0 0.00 0.00 0.00 70 1016.1
20260506183106 85 200 4.0 10.0 0.00 0.00 0.00 70 1016.1
20260506181601 85 261 3.0 10.0 0.00 0.00 0.00 69 1016.5
20260506180113 85 225 2.0 8.0 0.00 0.00 0.00 69 1016.5
20260506174554 85 246 2.0 8.0 0.00 0.00 0.00 67 1016.6
20260506173121 85 0 2.0 8.0 0.00 0.00 0.00 69 1016.6
20260506171556 85 0 2.0 8.0 0.00 0.00 0.00 68 1016.7
20260506170057 85 0 1.0 8.0 0.00 0.00 0.00 68 1016.6
20260506164553 85 208 1.0 7.0 0.00 0.00 0.00 68 1016.6
20260506163100 85 0 3.0 9.0 0.00 0.00 0.00 68 1016.7
20260506161557 84 147 2.0 9.0 0.00 0.00 0.00 69 1016.7
20260506160100 84 194 3.0 7.0 0.00 0.00 0.00 69 1016.7
20260506154558 84 174 3.0 7.0 0.00 0.00 0.00 69 1016.7
20260506153057 84 213 2.0 8.0 0.00 0.00 0.00 68 1016.7
20260506151555 84 225 4.0 8.0 0.00 0.00 0.00 69 1016.7
20260506150059 84 210 3.0 9.0 0.00 0.00 0.00 69 1016.6
20260506144604 83 240 4.0 9.0 0.00 0.00 0.00 70 1016.4
20260506143056 83 198 4.0 10.0 0.00 0.00 0.00 71 1016.3